Content
SEND FEEDBACK

Daily
Averages
Monthly
Summary
India

TIRUCHCHIRAPPALLI, INDIA


Home > Asia > India
Elevation: 289 feet     Latitude: 10 46N     Longitude: 078 43E

WEATHER
 
SELECT A DAY
Number of Records: 152,452;   Date Range: 7/2/96 - 7/27/14
 
SHARE

PRINT THIS DATA

[ ← Previous Day ]
WEATHER ALMANAC - JANUARY 31, 2013
[ Next Day → ]
[ °C ]   °F
Weather ElementAverageHighLow
Temperature78.8 °F90 °F (2:30 pm)71 °F (5:30 am)
Dewpoint66.7 °F69.8 °F (12:40 am)62 °F (11:30 pm)
Humidity68 %94 % (3:40 am)31 % (2:30 pm)
Barometer29.97 in30.04 in (9:10 am)29.88 in (5:30 pm)
Wind Speed8.1 mph16.1 mph (2:40 pm)
Weather ElementAverage
Visibility2.5 mi
Wind DirectionENE (63.9 °)

Weather ElementTotal
Precipitation---
Cooling Degree Days15.5 (Base 65)
Growing Degree Days30.5 (Base 50)
Averaged from 51 records on January 31, 2013
WEATHER CONDITIONS BREAKOUT
WIND DIRECTION BREAKOUT
WEATHER BY HOUR - JANUARY 31, 2013
[ °C ]   °F
Local TimeTemperatureDewpointHumidityBarometerVisibilityWind DirectionWind SpeedGust SpeedPrecipitationEventsConditions
12:40 AM73.4 °F69.8 °F88 %29.98 in2.5 miENE (60°)4.6 mphHaze
1:10 AM73.4 °F69.8 °F88 %29.98 in2.5 miNNE (30°)6.9 mphHaze
1:40 AM73.4 °F69.8 °F88 %29.98 in2.5 miNE (50°)4.6 mphHaze
2:10 AM73.4 °F69.8 °F88 %29.98 in2.5 miNE (50°)4.6 mphHaze
2:30 AM73.0 °F69.0 °F85 %29.97 in2.0 miNE (50°)3.5 mphHaze
2:40 AM73.4 °F69.8 °F88 %29.98 in2.5 miNE (50°)3.5 mphHaze
3:10 AM73.4 °F69.8 °F88 %29.95 in2.5 miNE (50°)4.6 mphHaze
3:40 AM71.6 °F69.8 °F94 %29.95 in2.5 miNE (50°)3.5 mphHaze
4:10 AM71.6 °F68.0 °F88 %29.95 in2.5 miEast (90°)3.5 mphHaze
4:40 AM71.6 °F68.0 °F88 %29.95 in2.5 miENE (60°)3.5 mphHaze
5:10 AM71.6 °F68.0 °F88 %29.95 in2.5 miENE (60°)3.5 mphHaze
5:30 AM71.0 °F68.0 °F88 %29.97 in2.0 miNE (50°)4.6 mphHaze
5:40 AM71.6 °F68.0 °F88 %29.98 in2.5 miNE (50°)4.6 mphHaze
6:10 AM71.6 °F68.0 °F88 %29.98 in2.5 miNE (50°)4.6 mphHaze
6:40 AM71.6 °F68.0 °F88 %29.98 in2.5 miNE (40°)3.5 mphHaze
7:10 AM71.6 °F69.8 °F94 %29.98 in1.2 miNE (50°)4.6 mphPartly Cloudy
7:40 AM71.6 °F69.8 °F94 %30.01 inNE (50°)4.6 mphPartly Cloudy
8:10 AM73.4 °F69.8 °F88 %30.01 in1.1 miNE (40°)6.9 mphMist
8:30 AM75.0 °F69.0 °F77 %30.02 in1.0 miNE (50°)10.4 mphMist
8:40 AM75.2 °F68.0 °F78 %30.01 in1.2 miNE (40°)10.4 mphPartly Cloudy
9:10 AM77.0 °F68.0 °F74 %30.04 in1.6 miNE (50°)9.2 mphHaze
10:10 AM80.6 °F68.0 °F65 %30.04 in1.9 miNE (50°)10.4 mphHaze
10:40 AM82.4 °F68.0 °F62 %30.04 in2.2 miENE (70°)6.9 mphHaze
11:10 AM84.2 °F68.0 °F58 %30.01 in2.5 miEast (80°)9.2 mphHaze
11:30 AM87.0 °F65.0 °F38 %30.00 in2.0 miEast (90°)10.4 mphHaze
11:40 AM86.0 °F66.2 °F51 %30.01 in2.5 miENE (60°)6.9 mphHaze
12:10 PM87.8 °F66.2 °F49 %29.98 in2.5 miENE (70°)10.4 mphHaze
12:40 PM87.8 °F66.2 °F49 %29.98 in2.5 miENE (60°)9.2 mphHaze
1:10 PM89.6 °F66.2 °F46 %29.95 in2.5 miNE (50°)9.2 mphHaze
2:10 PM89.6 °F64.4 °F43 %29.92 in3.1 miEast (80°)11.5 mphHaze
2:30 PM90.0 °F63.0 °F31 %29.91 in2.0 miEast (90°)13.8 mphHaze
2:40 PM89.6 °F66.2 °F46 %29.92 in3.1 miEast (90°)16.1 mphHaze
3:10 PM89.6 °F64.4 °F43 %29.89 in3.7 miEast (100°)12.7 mphScattered Clouds
3:40 PM87.8 °F64.4 °F46 %29.89 in3.7 miEast (90°)16.1 mphHaze
4:10 PM87.8 °F66.2 °F49 %29.89 in3.7 miEast (100°)16.1 mphScattered Clouds
4:40 PM87.8 °F64.4 °F46 %29.89 in3.7 miENE (70°)12.7 mphScattered Clouds
5:30 PM86.0 °F63.0 °F37 %29.88 in2.0 miEast (90°)16.1 mphHaze
5:40 PM86.0 °F66.2 °F51 %29.89 in3.1 miEast (80°)13.8 mphHaze
6:10 PM84.2 °F66.2 °F55 %29.89 in3.1 miESE (110°)12.7 mphHaze
6:40 PM84.2 °F66.2 °F55 %29.92 in3.1 miEast (90°)12.7 mphHaze
7:10 PM84.2 °F66.2 °F55 %29.92 in3.1 miEast (80°)11.5 mphHaze
7:40 PM84.2 °F66.2 °F55 %29.95 in3.1 miEast (80°)8.1 mphHaze
8:10 PM77.0 °F64.4 °F65 %29.95 in3.1 miEast (90°)9.2 mphHaze
8:40 PM77.0 °F64.4 °F65 %29.98 in3.1 miENE (70°)9.2 mphHaze
9:10 PM75.2 °F64.4 °F69 %29.98 in3.1 miEast (80°)5.8 mphHaze
9:40 PM75.2 °F64.4 °F69 %30.01 in3.1 miENE (60°)5.8 mphHaze
10:10 PM75.2 °F64.4 °F69 %30.01 in2.5 miNE (40°)4.6 mphHaze
10:40 PM75.2 °F64.4 °F69 %30.01 in2.5 miNNE (30°)5.8 mphHaze
11:10 PM73.4 °F62.6 °F69 %30.01 in2.5 miNE (40°)5.8 mphHaze
11:30 PM73.0 °F62.0 °F60 %30.00 in1.0 miNE (50°)5.8 mphHaze
11:40 PM73.4 °F64.4 °F73 %30.01 in2.5 miNE (50°)6.9 mphHaze
Hourly data recorded from VOTR, located miles away from Tiruchchirappalli, India







STORIES FROM OUR PARTNERS